"Sample Date","Sample Time","Sensor Name","Sample Value","Units","Flow Rate","Sample Interval","Sample Volume","Laser Status","Number Channels","Micron Size 0","Counts/Channel 0","Micron Size 1","Counts/Channel 1","Micron Size 2","Counts/Channel 2","Micron Size 3","Counts/Channel 3","Micron Size 4","Counts/Channel 4","Micron Size 5","Counts/Channel 5","Micron Size 6","Counts/Channel 6","Micron Size 7","Counts/Channel 7","Micron Size 8","Counts/Channel 8","Micron Size 9","Counts/Channel 9","Micron Size 10","Counts/Channel 10","Micron Size 11","Counts/Channel 11","Micron Size 12","Counts/Channel 12","Micron Size 13","Counts/Channel 13","Micron Size 14","Counts/Channel 14","Micron Size 15","Counts/Channel 15","Micron Size 16","Counts/Channel 16","Micron Size 17","Counts/Channel 17","Micron Size 18","Counts/Channel 18","Micron Size 19","Counts/Channel 19","Micron Size 20","Counts/Channel 20","Micron Size 21","Counts/Channel 21","Micron Size 22","Counts/Channel 22","Micron Size 23","Counts/Channel 23","Micron Size 24","Counts/Channel 24","Micron Size 25","Counts/Channel 25","Micron Size 26","Counts/Channel 26","Micron Size 27","Counts/Channel 27","Micron Size 28","Counts/Channel 28","Micron Size 29","Counts/Channel 29","Micron Size 30","Counts/Channel 30","Micron Size 31","Counts/Channel 31"
"07/07/06","15:00:02","AMMA06",35883.000,"cc",28333.750,6.00,2833.375,1,6,0.100,17171.000,0.200,15100.000,0.300,2731.000,0.500,521.000,1.000,360.000,5.000,0
"07/07/06","15:00:08","AMMA06",35565.000,"cc",28349.041,6.00,2834.904,1,6,0.100,17135.000,0.200,14887.000,0.300,2721.000,0.500,479.000,1.000,343.000,5.000,0
"07/07/06","15:00:14","AMMA06",38122.000,"cc",28315.986,6.00,2831.599,1,6,0.100,17954.000,0.200,15572.000,0.300,3223.000,0.500,853.000,1.000,520.000,5.000,0
"07/07/06","15:00:20","AMMA06",36564.000,"cc",28273.561,6.00,2827.356,1,6,0.100,17504.000,0.200,15070.000,0.300,2911.000,0.500,659.000,1.000,420.000,5.000,0
"07/07/06","15:00:26","AMMA06",35749.000,"cc",28300.457,6.00,2830.046,1,6,0.100,16929.000,0.200,15128.000,0.300,2724.000,0.500,570.000,1.000,398.000,5.000,0
"07/07/06","15:00:32","AMMA06",35830.000,"cc",28348.588,6.00,2834.859,1,6,0.100,17088.000,0.200,15139.000,0.300,2725.000,0.500,517.000,1.000,361.000,5.000,0
"07/07/06","15:00:38","AMMA06",36361.000,"cc",28239.594,6.00,2823.960,1,6,0.100,17386.000,0.200,15341.000,0.300,2734.000,0.500,533.000,1.000,367.000,5.000,0
"07/07/06","15:00:44","AMMA06",37588.000,"cc",28358.002,6.00,2835.800,1,6,0.100,17771.000,0.200,15446.000,0.300,3155.000,0.500,759.000,1.000,457.000,5.000,0
"07/07/06","15:00:50","AMMA06",36415.000,"cc",28309.510,6.00,2830.951,1,6,0.100,17392.000,0.200,15354.000,0.300,2787.000,0.500,527.000,1.000,355.000,5.000,0
"07/07/06","15:00:56","AMMA06",36777.000,"cc",28327.002,6.00,2832.700,1,6,0.100,17498.000,0.200,15348.000,0.300,2929.000,0.500,604.000,1.000,398.000,5.000,0
"07/07/06","15:01:02","AMMA06",36626.000,"cc",28307.645,6.00,2830.765,1,6,0.100,17338.000,0.200,15264.000,0.300,2986.000,0.500,627.000,1.000,411.000,5.000,0
"07/07/06","15:01:08","AMMA06",36493.000,"cc",28313.738,6.00,2831.374,1,6,0.100,17415.000,0.200,15361.000,0.300,2782.000,0.500,550.000,1.000,385.000,5.000,0
"07/07/06","15:01:14","AMMA06",36060.000,"cc",28323.541,6.00,2832.354,1,6,0.100,17090.000,0.200,15390.000,0.300,2701.000,0.500,530.000,1.000,349.000,5.000,0
"07/07/06","15:01:20","AMMA06",36017.000,"cc",28354.039,6.00,2835.404,1,6,0.100,17208.000,0.200,15243.000,0.300,2703.000,0.500,509.000,1.000,354.000,5.000,0
"07/07/06","15:01:26","AMMA06",35877.000,"cc",28303.768,6.00,2830.377,1,6,0.100,17145.000,0.200,15104.000,0.300,2739.000,0.500,525.000,1.000,364.000,5.000,0
"07/07/06","15:01:32","AMMA06",36259.000,"cc",28329.496,6.00,2832.950,1,6,0.100,17111.000,0.200,15403.000,0.300,2845.000,0.500,530.000,1.000,370.000,5.000,0
"07/07/06","15:01:38","AMMA06",36085.000,"cc",28323.535,6.00,2832.354,1,6,0.100,17329.000,0.200,15074.000,0.300,2797.000,0.500,535.000,1.000,350.000,5.000,0
"07/07/06","15:01:44","AMMA06",36421.000,"cc",28345.535,6.00,2834.554,1,6,0.100,17235.000,0.200,15393.000,0.300,2829.000,0.500,591.000,1.000,373.000,5.000,0
"07/07/06","15:01:50","AMMA06",36468.000,"cc",28300.223,6.00,2830.023,1,6,0.100,17455.000,0.200,15145.000,0.300,2892.000,0.500,602.000,1.000,374.000,5.000,0
"07/07/06","15:01:56","AMMA06",36513.000,"cc",28295.924,6.00,2829.593,1,6,0.100,17281.000,0.200,15329.000,0.300,2891.000,0.500,628.000,1.000,384.000,5.000,0
"07/07/06","15:02:02","AMMA06",38054.000,"cc",28321.481,6.00,2832.148,1,6,0.100,17955.000,0.200,15661.000,0.300,3260.000,0.500,761.000,1.000,417.000,5.000,0
"07/07/06","15:02:08","AMMA06",38218.000,"cc",28311.221,6.00,2831.122,1,6,0.100,18035.000,0.200,15873.000,0.300,3217.000,0.500,684.000,1.000,409.000,5.000,0
"07/07/06","15:02:14","AMMA06",38222.000,"cc",28307.154,6.00,2830.716,1,6,0.100,17973.000,0.200,15709.000,0.300,3301.000,0.500,777.000,1.000,462.000,5.000,0
"07/07/06","15:02:20","AMMA06",37416.000,"cc",28312.418,6.00,2831.242,1,6,0.100,17406.000,0.200,15765.000,0.300,3172.000,0.500,676.000,1.000,396.000,5.000,1.000
"07/07/06","15:02:26","AMMA06",36502.000,"cc",28351.061,6.00,2835.106,1,6,0.100,17123.000,0.200,15583.000,0.300,2851.000,0.500,572.000,1.000,373.000,5.000,0
"07/07/06","15:02:32","AMMA06",36266.000,"cc",28376.166,6.00,2837.617,1,6,0.100,17103.000,0.200,15368.000,0.300,2818.000,0.500,570.000,1.000,407.000,5.000,0
"07/07/06","15:02:38","AMMA06",36854.000,"cc",28320.045,6.00,2832.005,1,6,0.100,17322.000,0.200,15657.000,0.300,2984.000,0.500,539.000,1.000,352.000,5.000,0
"07/07/06","15:02:44","AMMA06",36254.000,"cc",28231.902,6.00,2823.190,1,6,0.100,16951.000,0.200,15480.000,0.300,2911.000,0.500,546.000,1.000,366.000,5.000,0
"07/07/06","15:02:50","AMMA06",37564.000,"cc",28359.359,6.00,2835.936,1,6,0.100,17447.000,0.200,15934.000,0.300,3041.000,0.500,684.000,1.000,458.000,5.000,0
"07/07/06","15:02:56","AMMA06",37041.000,"cc",28348.338,6.00,2834.834,1,6,0.100,17289.000,0.200,15626.000,0.300,3122.000,0.500,615.000,1.000,389.000,5.000,0
"07/07/06","15:03:02","AMMA06",36221.000,"cc",28355.699,6.00,2835.570,1,6,0.100,16827.000,0.200,15457.000,0.300,2947.000,0.500,582.000,1.000,408.000,5.000,0
"07/07/06","15:03:08","AMMA06",36832.000,"cc",28313.844,6.00,2831.385,1,6,0.100,17194.000,0.200,15563.000,0.300,3079.000,0.500,574.000,1.000,422.000,5.000,0
"07/07/06","15:03:14","AMMA06",36516.000,"cc",28265.805,6.00,2826.581,1,6,0.100,16785.000,0.200,15751.000,0.300,3073.000,0.500,514.000,1.000,393.000,5.000,0
"07/07/06","15:03:20","AMMA06",38316.000,"cc",28272.156,6.00,2827.216,1,6,0.100,17691.000,0.200,16162.000,0.300,3316.000,0.500,686.000,1.000,461.000,5.000,0
"07/07/06","15:03:26","AMMA06",37161.000,"cc",28343.232,6.00,2834.324,1,6,0.100,17095.000,0.200,15896.000,0.300,3154.000,0.500,600.000,1.000,415.000,5.000,1.000
"07/07/06","15:03:32","AMMA06",37456.000,"cc",28318.846,6.00,2831.885,1,6,0.100,17162.000,0.200,16011.000,0.300,3183.000,0.500,642.000,1.000,458.000,5.000,0
"07/07/06","15:03:38","AMMA06",37229.000,"cc",28303.643,6.00,2830.365,1,6,0.100,16945.000,0.200,15975.000,0.300,3226.000,0.500,644.000,1.000,439.000,5.000,0
"07/07/06","15:03:44","AMMA06",38014.000,"cc",28311.563,6.00,2831.157,1,6,0.100,17287.000,0.200,16116.000,0.300,3413.000,0.500,752.000,1.000,446.000,5.000,0
"07/07/06","15:03:50","AMMA06",37083.000,"cc",28342.311,6.00,2834.231,1,6,0.100,17027.000,0.200,15913.000,0.300,3145.000,0.500,574.000,1.000,424.000,5.000,0
"07/07/06","15:03:56","AMMA06",36823.000,"cc",28316.553,6.00,2831.656,1,6,0.100,16638.000,0.200,16028.000,0.300,3178.000,0.500,598.000,1.000,381.000,5.000,0
"07/07/06","15:04:02","AMMA06",36369.000,"cc",28323.520,6.00,2832.352,1,6,0.100,16616.000,0.200,15811.000,0.300,3065.000,0.500,530.000,1.000,347.000,5.000,0
"07/07/06","15:04:08","AMMA06",37393.000,"cc",28305.455,6.00,2830.546,1,6,0.100,17087.000,0.200,16046.000,0.300,3236.000,0.500,585.000,1.000,439.000,5.000,0
"07/07/06","15:04:14","AMMA06",38634.000,"cc",28298.904,6.00,2829.891,1,6,0.100,17247.000,0.200,16630.000,0.300,3499.000,0.500,784.000,1.000,474.000,5.000,0
"07/07/06","15:04:20","AMMA06",37706.000,"cc",28372.221,6.00,2837.222,1,6,0.100,17155.000,0.200,16044.000,0.300,3336.000,0.500,713.000,1.000,458.000,5.000,0
"07/07/06","15:04:26","AMMA06",37536.000,"cc",28316.715,6.00,2831.672,1,6,0.100,17175.000,0.200,15953.000,0.300,3323.000,0.500,624.000,1.000,461.000,5.000,0
"07/07/06","15:04:32","AMMA06",36794.000,"cc",28305.473,6.00,2830.547,1,6,0.100,16728.000,0.200,16000.000,0.300,3156.000,0.500,510.000,1.000,400.000,5.000,0
"07/07/06","15:04:38","AMMA06",36369.000,"cc",28308.486,6.00,2830.849,1,6,0.100,16366.000,0.200,15994.000,0.300,3118.000,0.500,509.000,1.000,382.000,5.000,0
"07/07/06","15:04:44","AMMA06",40426.000,"cc",28318.936,6.00,2831.894,1,6,0.100,19354.000,0.200,16670.000,0.300,3332.000,0.500,622.000,1.000,448.000,5.000,0
"07/07/06","15:04:50","AMMA06",37330.000,"cc",28302.690,6.00,2830.269,1,6,0.100,17069.000,0.200,16073.000,0.300,3218.000,0.500,555.000,1.000,415.000,5.000,0
"07/07/06","15:04:56","AMMA06",37537.000,"cc",28319.889,6.00,2831.989,1,6,0.100,16824.000,0.200,16456.000,0.300,3228.000,0.500,605.000,1.000,424.000,5.000,0
"07/07/06","15:05:02","AMMA06",39312.000,"cc",28287.070,6.00,2828.707,1,6,0.100,17402.000,0.200,16761.000,0.300,3667.000,0.500,880.000,1.000,602.000,5.000,0
"07/07/06","15:05:08","AMMA06",41961.000,"cc",28313.402,6.00,2831.340,1,6,0.100,18595.000,0.200,17334.000,0.300,4218.000,0.500,1155.000,1.000,659.000,5.000,0
"07/07/06","15:05:14","AMMA06",38142.000,"cc",28303.994,6.00,2830.400,1,6,0.100,16913.000,0.200,16570.000,0.300,3482.000,0.500,718.000,1.000,458.000,5.000,1.000
"07/07/06","15:05:20","AMMA06",38973.000,"cc",28325.932,6.00,2832.593,1,6,0.100,17483.000,0.200,16740.000,0.300,3491.000,0.500,741.000,1.000,517.000,5.000,1.000
"07/07/06","15:05:26","AMMA06",41656.000,"cc",28300.615,6.00,2830.062,1,6,0.100,18562.000,0.200,17170.000,0.300,4235.000,0.500,1052.000,1.000,637.000,5.000,0
"07/07/06","15:05:32","AMMA06",40721.000,"cc",28404.955,6.00,2840.496,1,6,0.100,18230.000,0.200,17155.000,0.300,3801.000,0.500,925.000,1.000,610.000,5.000,0
"07/07/06","15:05:38","AMMA06",41316.000,"cc",28303.668,6.00,2830.367,1,6,0.100,18407.000,0.200,17188.000,0.300,4057.000,0.500,1056.000,1.000,608.000,5.000,0
"07/07/06","15:05:44","AMMA06",37105.000,"cc",28250.400,6.00,2825.040,1,6,0.100,16643.000,0.200,16227.000,0.300,3211.000,0.500,622.000,1.000,402.000,5.000,0
"07/07/06","15:05:50","AMMA06",37715.000,"cc",28351.191,6.00,2835.119,1,6,0.100,16837.000,0.200,16454.000,0.300,3310.000,0.500,649.000,1.000,464.000,5.000,1.000
"07/07/06","15:05:56","AMMA06",38477.000,"cc",28300.369,6.00,2830.037,1,6,0.100,17311.000,0.200,16385.000,0.300,3507.000,0.500,775.000,1.000,499.000,5.000,0
"07/07/06","15:06:02","AMMA06",38627.000,"cc",28310.338,6.00,2831.034,1,6,0.100,17271.000,0.200,16624.000,0.300,3462.000,0.500,783.000,1.000,487.000,5.000,0
"07/07/06","15:06:08","AMMA06",41767.000,"cc",28355.596,6.00,2835.560,1,6,0.100,19547.000,0.200,17208.000,0.300,3676.000,0.500,843.000,1.000,493.000,5.000,0
"07/07/06","15:06:14","AMMA06",38714.000,"cc",28321.609,6.00,2832.161,1,6,0.100,17741.000,0.200,16339.000,0.300,3477.000,0.500,702.000,1.000,455.000,5.000,0
"07/07/06","15:06:20","AMMA06",39173.000,"cc",28303.678,6.00,2830.368,1,6,0.100,17937.000,0.200,16244.000,0.300,3659.000,0.500,834.000,1.000,499.000,5.000,0
"07/07/06","15:06:26","AMMA06",39021.000,"cc",28321.785,6.00,2832.179,1,6,0.100,18175.000,0.200,16323.000,0.300,3374.000,0.500,673.000,1.000,475.000,5.000,1.000
"07/07/06","15:06:32","AMMA06",37273.000,"cc",28320.172,6.00,2832.017,1,6,0.100,17196.000,0.200,15901.000,0.300,3125.000,0.500,639.000,1.000,412.000,5.000,0
"07/07/06","15:06:38","AMMA06",37272.000,"cc",28265.615,6.00,2826.562,1,6,0.100,17265.000,0.200,15679.000,0.300,3274.000,0.500,639.000,1.000,415.000,5.000,0
"07/07/06","15:06:44","AMMA06",36930.000,"cc",28317.867,6.00,2831.787,1,6,0.100,17056.000,0.200,15878.000,0.300,3058.000,0.500,560.000,1.000,378.000,5.000,0
"07/07/06","15:06:50","AMMA06",37304.000,"cc",28348.836,6.00,2834.884,1,6,0.100,17127.000,0.200,16000.000,0.300,3167.000,0.500,610.000,1.000,400.000,5.000,0
"07/07/06","15:06:56","AMMA06",37298.000,"cc",28311.723,6.00,2831.172,1,6,0.100,17275.000,0.200,15803.000,0.300,3212.000,0.500,618.000,1.000,390.000,5.000,0
"07/07/06","15:07:02","AMMA06",37326.000,"cc",28334.684,6.00,2833.469,1,6,0.100,17255.000,0.200,15894.000,0.300,3144.000,0.500,643.000,1.000,390.000,5.000,0
"07/07/06","15:07:08","AMMA06",37017.000,"cc",28300.986,6.00,2830.099,1,6,0.100,17247.000,0.200,15876.000,0.300,2934.000,0.500,588.000,1.000,372.000,5.000,0
"07/07/06","15:07:14","AMMA06",37264.000,"cc",28328.922,6.00,2832.892,1,6,0.100,17327.000,0.200,15812.000,0.300,3104.000,0.500,622.000,1.000,399.000,5.000,0
"07/07/06","15:07:20","AMMA06",36904.000,"cc",28341.215,6.00,2834.122,1,6,0.100,17171.000,0.200,15843.000,0.300,2953.000,0.500,558.000,1.000,379.000,5.000,0
"07/07/06","15:07:26","AMMA06",36840.000,"cc",28290.848,6.00,2829.085,1,6,0.100,17090.000,0.200,15927.000,0.300,2873.000,0.500,574.000,1.000,376.000,5.000,0
"07/07/06","15:07:32","AMMA06",37525.000,"cc",28293.416,6.00,2829.342,1,6,0.100,17589.000,0.200,15892.000,0.300,3038.000,0.500,607.000,1.000,399.000,5.000,0
"07/07/06","15:07:38","AMMA06",37723.000,"cc",28359.957,6.00,2835.996,1,6,0.100,17469.000,0.200,15989.000,0.300,3152.000,0.500,696.000,1.000,417.000,5.000,0
"07/07/06","15:07:44","AMMA06",42431.000,"cc",28285.332,6.00,2828.533,1,6,0.100,19536.000,0.200,16974.000,0.300,4043.000,0.500,1247.000,1.000,631.000,5.000,0
"07/07/06","15:07:50","AMMA06",39065.000,"cc",28341.893,6.00,2834.190,1,6,0.100,18320.000,0.200,16194.000,0.300,3299.000,0.500,789.000,1.000,463.000,5.000,0
"07/07/06","15:07:56","AMMA06",38191.000,"cc",28316.522,6.00,2831.652,1,6,0.100,17885.000,0.200,15917.000,0.300,3214.000,0.500,745.000,1.000,429.000,5.000,1.000
"07/07/06","15:08:02","AMMA06",37622.000,"cc",28320.805,6.00,2832.081,1,6,0.100,17476.000,0.200,15888.000,0.300,3152.000,0.500,674.000,1.000,432.000,5.000,0
"07/07/06","15:08:08","AMMA06",37349.000,"cc",28307.451,6.00,2830.745,1,6,0.100,17554.000,0.200,15681.000,0.300,3014.000,0.500,651.000,1.000,449.000,5.000,0
"07/07/06","15:08:14","AMMA06",38064.000,"cc",28290.381,6.00,2829.038,1,6,0.100,17718.000,0.200,16053.000,0.300,3144.000,0.500,702.000,1.000,447.000,5.000,0
"07/07/06","15:08:20","AMMA06",38241.000,"cc",28333.416,6.00,2833.342,1,6,0.100,17803.000,0.200,16056.000,0.300,3232.000,0.500,737.000,1.000,413.000,5.000,0
"07/07/06","15:08:26","AMMA06",37653.000,"cc",28317.076,6.00,2831.708,1,6,0.100,17676.000,0.200,15859.000,0.300,3081.000,0.500,612.000,1.000,425.000,5.000,0
"07/07/06","15:08:32","AMMA06",37367.000,"cc",28364.098,6.00,2836.410,1,6,0.100,17508.000,0.200,15730.000,0.300,3019.000,0.500,688.000,1.000,422.000,5.000,0
"07/07/06","15:08:38","AMMA06",37215.000,"cc",28307.588,6.00,2830.759,1,6,0.100,17336.000,0.200,15794.000,0.300,3004.000,0.500,660.000,1.000,421.000,5.000,0
"07/07/06","15:08:44","AMMA06",36810.000,"cc",28292.285,6.00,2829.229,1,6,0.100,17261.000,0.200,15618.000,0.300,3007.000,0.500,586.000,1.000,338.000,5.000,0
"07/07/06","15:08:50","AMMA06",37623.000,"cc",28359.393,6.00,2835.940,1,6,0.100,17759.000,0.200,15759.000,0.300,3032.000,0.500,669.000,1.000,404.000,5.000,0
"07/07/06","15:08:56","AMMA06",37837.000,"cc",28298.619,6.00,2829.862,1,6,0.100,17725.000,0.200,15936.000,0.300,3134.000,0.500,637.000,1.000,405.000,5.000,0
"07/07/06","15:09:02","AMMA06",37437.000,"cc",28327.272,6.00,2832.727,1,6,0.100,17559.000,0.200,15822.000,0.300,3020.000,0.500,636.000,1.000,400.000,5.000,0
"07/07/06","15:09:08","AMMA06",37152.000,"cc",28306.578,6.00,2830.658,1,6,0.100,17309.000,0.200,15845.000,0.300,2986.000,0.500,626.000,1.000,386.000,5.000,0
"07/07/06","15:09:14","AMMA06",37887.000,"cc",28270.436,6.00,2827.044,1,6,0.100,17778.000,0.200,15942.000,0.300,3126.000,0.500,640.000,1.000,401.000,5.000,0
"07/07/06","15:09:20","AMMA06",37541.000,"cc",28341.732,6.00,2834.173,1,6,0.100,17583.000,0.200,15975.000,0.300,2984.000,0.500,603.000,1.000,396.000,5.000,0
"07/07/06","15:09:26","AMMA06",38715.000,"cc",28328.180,6.00,2832.818,1,6,0.100,17803.000,0.200,16372.000,0.300,3270.000,0.500,769.000,1.000,501.000,5.000,0
"07/07/06","15:09:32","AMMA06",38645.000,"cc",28349.170,6.00,2834.917,1,6,0.100,18107.000,0.200,16189.000,0.300,3230.000,0.500,687.000,1.000,432.000,5.000,0
"07/07/06","15:09:38","AMMA06",47193.000,"cc",28317.705,6.00,2831.771,1,6,0.100,21374.000,0.200,18236.000,0.300,4995.000,0.500,1731.000,1.000,857.000,5.000,0
"07/07/06","15:09:44","AMMA06",40653.000,"cc",28272.895,6.00,2827.290,1,6,0.100,19060.000,0.200,16463.000,0.300,3699.000,0.500,902.000,1.000,529.000,5.000,0
"07/07/06","15:09:50","AMMA06",41257.000,"cc",28290.111,6.00,2829.011,1,6,0.100,19352.000,0.200,16748.000,0.300,3641.000,0.500,1016.000,1.000,500.000,5.000,0
"07/07/06","15:09:56","AMMA06",38895.000,"cc",28300.043,6.00,2830.004,1,6,0.100,18183.000,0.200,16230.000,0.300,3282.000,0.500,750.000,1.000,450.000,5.000,0
"07/07/06","15:10:02","AMMA06",38220.000,"cc",28287.690,6.00,2828.769,1,6,0.100,17820.000,0.200,16151.000,0.300,3134.000,0.500,704.000,1.000,411.000,5.000,0
"07/07/06","15:10:08","AMMA06",37482.000,"cc",28307.402,6.00,2830.741,1,6,0.100,17597.000,0.200,15825.000,0.300,3080.000,0.500,559.000,1.000,420.000,5.000,1.000
"07/07/06","15:10:14","AMMA06",38498.000,"cc",28413.129,6.00,2841.313,1,6,0.100,17893.000,0.200,16191.000,0.300,3271.000,0.500,711.000,1.000,432.000,5.000,0
"07/07/06","15:10:20","AMMA06",37952.000,"cc",28313.055,6.00,2831.306,1,6,0.100,17670.000,0.200,16068.000,0.300,3168.000,0.500,647.000,1.000,399.000,5.000,0
"07/07/06","15:10:26","AMMA06",37061.000,"cc",28280.799,6.00,2828.080,1,6,0.100,17131.000,0.200,16009.000,0.300,3016.000,0.500,549.000,1.000,356.000,5.000,0
"07/07/06","15:10:32","AMMA06",37373.000,"cc",28313.637,6.00,2831.364,1,6,0.100,17247.000,0.200,16222.000,0.300,2914.000,0.500,599.000,1.000,391.000,5.000,0
"07/07/06","15:10:38","AMMA06",38228.000,"cc",28327.361,6.00,2832.736,1,6,0.100,17722.000,0.200,16165.000,0.300,3261.000,0.500,676.000,1.000,404.000,5.000,0
"07/07/06","15:10:44","AMMA06",38531.000,"cc",28324.145,6.00,2832.415,1,6,0.100,17692.000,0.200,16395.000,0.300,3290.000,0.500,707.000,1.000,447.000,5.000,0
"07/07/06","15:10:50","AMMA06",36927.000,"cc",28346.246,6.00,2834.625,1,6,0.100,17132.000,0.200,15769.000,0.300,3087.000,0.500,548.000,1.000,391.000,5.000,0
"07/07/06","15:10:56","AMMA06",37544.000,"cc",28319.527,6.00,2831.953,1,6,0.100,17391.000,0.200,16110.000,0.300,3100.000,0.500,589.000,1.000,354.000,5.000,0
"07/07/06","15:11:02","AMMA06",38228.000,"cc",28294.565,6.00,2829.457,1,6,0.100,17672.000,0.200,16091.000,0.300,3310.000,0.500,720.000,1.000,435.000,5.000,0
"07/07/06","15:11:08","AMMA06",38071.000,"cc",28291.969,6.00,2829.197,1,6,0.100,17341.000,0.200,16310.000,0.300,3210.000,0.500,712.000,1.000,498.000,5.000,0
"07/07/06","15:11:14","AMMA06",37346.000,"cc",28300.379,6.00,2830.038,1,6,0.100,17257.000,0.200,16035.000,0.300,3086.000,0.500,565.000,1.000,403.000,5.000,0
"07/07/06","15:11:20","AMMA06",38194.000,"cc",28334.893,6.00,2833.490,1,6,0.100,17582.000,0.200,16077.000,0.300,3347.000,0.500,717.000,1.000,471.000,5.000,0
"07/07/06","15:11:26","AMMA06",39702.000,"cc",28283.418,6.00,2828.342,1,6,0.100,18067.000,0.200,16485.000,0.300,3676.000,0.500,892.000,1.000,581.000,5.000,1.000
"07/07/06","15:11:32","AMMA06",39748.000,"cc",28306.924,6.00,2830.693,1,6,0.100,17858.000,0.200,16783.000,0.300,3692.000,0.500,860.000,1.000,555.000,5.000,0
"07/07/06","15:11:38","AMMA06",39329.000,"cc",28356.332,6.00,2835.633,1,6,0.100,18178.000,0.200,16461.000,0.300,3389.000,0.500,790.000,1.000,511.000,5.000,0
"07/07/06","15:11:44","AMMA06",40101.000,"cc",28338.607,6.00,2833.861,1,6,0.100,17880.000,0.200,17026.000,0.300,3671.000,0.500,945.000,1.000,579.000,5.000,0
"07/07/06","15:11:50","AMMA06",40707.000,"cc",28307.049,6.00,2830.705,1,6,0.100,18423.000,0.200,17058.000,0.300,3755.000,0.500,908.000,1.000,563.000,5.000,0
"07/07/06","15:11:56","AMMA06",38012.000,"cc",28314.781,6.00,2831.478,1,6,0.100,17350.000,0.200,16204.000,0.300,3399.000,0.500,621.000,1.000,438.000,5.000,0
"07/07/06","15:12:02","AMMA06",37899.000,"cc",28335.121,6.00,2833.512,1,6,0.100,17098.000,0.200,16307.000,0.300,3324.000,0.500,687.000,1.000,483.000,5.000,0
"07/07/06","15:12:08","AMMA06",38026.000,"cc",28300.639,6.00,2830.064,1,6,0.100,17140.000,0.200,16381.000,0.300,3399.000,0.500,659.000,1.000,447.000,5.000,0
"07/07/06","15:12:14","AMMA06",39179.000,"cc",28322.635,6.00,2832.264,1,6,0.100,18009.000,0.200,16650.000,0.300,3453.000,0.500,613.000,1.000,454.000,5.000,0
"07/07/06","15:12:20","AMMA06",38837.000,"cc",28322.723,6.00,2832.273,1,6,0.100,17385.000,0.200,16558.000,0.300,3592.000,0.500,791.000,1.000,511.000,5.000,0
"07/07/06","15:12:26","AMMA06",38794.000,"cc",28299.574,6.00,2829.958,1,6,0.100,17518.000,0.200,16635.000,0.300,3461.000,0.500,720.000,1.000,460.000,5.000,0
"07/07/06","15:12:32","AMMA06",40013.000,"cc",28323.570,6.00,2832.357,1,6,0.100,17940.000,0.200,16763.000,0.300,3841.000,0.500,886.000,1.000,583.000,5.000,0
"07/07/06","15:12:38","AMMA06",38410.000,"cc",28303.475,6.00,2830.348,1,6,0.100,17286.000,0.200,16388.000,0.300,3464.000,0.500,765.000,1.000,507.000,5.000,0
"07/07/06","15:12:44","AMMA06",37979.000,"cc",28286.473,6.00,2828.648,1,6,0.100,17023.000,0.200,16531.000,0.300,3370.000,0.500,625.000,1.000,430.000,5.000,0
"07/07/06","15:12:50","AMMA06",37358.000,"cc",28306.332,6.00,2830.633,1,6,0.100,16795.000,0.200,16288.000,0.300,3210.000,0.500,663.000,1.000,402.000,5.000,0
"07/07/06","15:12:56","AMMA06",41405.000,"cc",28348.172,6.00,2834.817,1,6,0.100,18673.000,0.200,17231.000,0.300,3966.000,0.500,967.000,1.000,568.000,5.000,0
"07/07/06","15:13:02","AMMA06",40070.000,"cc",28292.148,6.00,2829.215,1,6,0.100,18411.000,0.200,16923.000,0.300,3603.000,0.500,671.000,1.000,462.000,5.000,0
"07/07/06","15:13:08","AMMA06",38893.000,"cc",28352.674,6.00,2835.268,1,6,0.100,17705.000,0.200,16572.000,0.300,3540.000,0.500,625.000,1.000,451.000,5.000,0
"07/07/06","15:13:14","AMMA06",38712.000,"cc",28323.543,6.00,2832.355,1,6,0.100,17556.000,0.200,16526.000,0.300,3440.000,0.500,707.000,1.000,483.000,5.000,0
"07/07/06","15:13:20","AMMA06",37743.000,"cc",28330.672,6.00,2833.067,1,6,0.100,17015.000,0.200,16238.000,0.300,3392.000,0.500,648.000,1.000,450.000,5.000,0
"07/07/06","15:13:26","AMMA06",37181.000,"cc",28326.598,6.00,2832.660,1,6,0.100,16499.000,0.200,16218.000,0.300,3348.000,0.500,640.000,1.000,476.000,5.000,0
"07/07/06","15:13:32","AMMA06",38707.000,"cc",28287.637,6.00,2828.764,1,6,0.100,17412.000,0.200,16560.000,0.300,3471.000,0.500,778.000,1.000,486.000,5.000,0
"07/07/06","15:13:38","AMMA06",38555.000,"cc",28307.006,6.00,2830.701,1,6,0.100,17197.000,0.200,16688.000,0.300,3468.000,0.500,708.000,1.000,494.000,5.000,0
"07/07/06","15:13:44","AMMA06",37203.000,"cc",28324.844,6.00,2832.485,1,6,0.100,16766.000,0.200,16121.000,0.300,3298.000,0.500,595.000,1.000,422.000,5.000,1.000
"07/07/06","15:13:50","AMMA06",37324.000,"cc",28350.691,6.00,2835.069,1,6,0.100,16908.000,0.200,16061.000,0.300,3307.000,0.500,620.000,1.000,428.000,5.000,0
"07/07/06","15:13:56","AMMA06",37998.000,"cc",28274.061,6.00,2827.406,1,6,0.100,17364.000,0.200,16332.000,0.300,3259.000,0.500,601.000,1.000,442.000,5.000,0
"07/07/06","15:14:02","AMMA06",37268.000,"cc",28353.143,6.00,2835.315,1,6,0.100,16756.000,0.200,16334.000,0.300,3110.000,0.500,616.000,1.000,452.000,5.000,0
"07/07/06","15:14:08","AMMA06",37723.000,"cc",28296.287,6.00,2829.629,1,6,0.100,17050.000,0.200,16442.000,0.300,3241.000,0.500,588.000,1.000,402.000,5.000,0
"07/07/06","15:14:14","AMMA06",37968.000,"cc",28311.231,6.00,2831.123,1,6,0.100,17170.000,0.200,16245.000,0.300,3441.000,0.500,697.000,1.000,415.000,5.000,0